Location: Saratoga Springs
(43.0831°N, 73.7850°W)
Time: 11:51:09
(UTC-04:00)

Vanguard 1 Rocket - Pass Details

Date: 18 April 2024
Orbit: 651 x 4220 km, 34.3° (Epoch: 19 May)

Event Time Altitude Azimuth Distance (km) Brightness Sun altitude
Exits shadow 04:11:28 12° 201° (SSW) 6,720 11.3 -19.7°
Drops below altitude 10° 04:14:06 10° 195° (SSW) 7,024 11.4 -19.3°
Sets 04:25:15 0° 175° (S) 8,420 12.0 -17.7°
